{"data":{"norad_id":63407,"intl_designator":"2025-065J","name":"STARLINK-33694","alt_names":[],"object_type":"PAYLOAD","status":"ACTIVE","operator":null,"country":"US","launch_date":"2025-03-31","launch_site_code":"AFETR","launch_vehicle":null,"mission":null,"orbit_class":"UNKNOWN","rcs_meters":null,"size_class":null,"mass_kg":null,"dimensions":null,"purposes":["comms"],"wikipedia_slug":null,"has_3d_model":false,"image_url":null,"decayed_at":null,"tle_current":{"epoch":"2026-05-25T01:40:59.878272Z","epoch_age_seconds":62828,"freshness":"FRESH","line1":"1 63407U 25065J   26145.07013748  .00022479  00000+0  82369-3 0  9990","line2":"2 63407  43.0025  35.5176 0001337 268.0859  91.9840 15.27589064 64520","mean_motion":15.27589064,"eccentricity":0.0001337,"inclination_deg":43.0025,"raan_deg":35.5176,"arg_perigee_deg":268.0859,"mean_anomaly_deg":91.984,"bstar":0.00082369,"rev_number":6452,"period_min":94.266189378795,"perigee_km":482.10461834477,"apogee_km":483.93929224942,"semimajor_km":6861.1589552971,"source":"CELESTRAK","updated_at":"2026-05-25T13:38:19.969795Z"}}}